sat.trackr.live / text

‹ back to catalog

2024-125A

NORAD 60203 · 2024-125A

PAYLOAD ACTIVE UNKNOWN

§ Identity

Operator
Country
US
Launch date
2024-07-04
Launch site
AFWTR
Launch vehicle
Mass (kg)
RCS (m²)

External: N2YO · Heavens-Above · Gunter

§ Orbital elements

Epoch: 2026-09-22T14:18:22.075776Z

Period
90.93 min
Inclination
97.2026°
Eccentricity
0.0006423
Mean motion
15.83721589 rev/d
Perigee alt
315.6 km
Apogee alt
324.2 km
Semi-major
6,698.1 km
B*
6.4937e-4
RAAN
127.6652°
Arg perigee
175.2901°
Mean anomaly
184.8431°
Rev number
12,495

§ Raw data

2024-125A1 60203U 24125A   26265.59608884  .00144704  00000+0  64937-3 0  99952 60203  97.2026 127.6652 0006423 175.2901 184.8431 15.83721589124957

JSON: /api/v1/satellites/60203 · /tle

For live sub-satellite position, see the globe view (requires WebGL).

§ Visibility from observer

Set your observer location to see the next 7 days of passes ≥ 10°. The values pass through the URL so the page stays shareable.

No JS? Fill the form by hand. The geolocation button needs JavaScript.